National Weather Service United States Department of Commerce

Latest Hourly Weather Roundup

TOPSWRTT 000
TTAA00 KICT 211112

Wichita AWIPS Roundup
National Weather Service Wichita KS
500 AM CST FRI JAN 21 2022

....Central Kansas....
  
CITY           SKY/WX    TMP DP  RH WIND       PRES   REMARKS
RUSSELL        CLEAR     10  -2  58 S16       30.29F WCI  -7          
SALINA         CLEAR     10   1  67 SE8       30.42S WCI  -2          
GREAT BEND     CLEAR      7  -1  70 SE9       30.32F WCI  -7          
ELLSWORTH      CLEAR     10   0  61 SE8       30.35F WCI  -1          
LYONS          FAIR      10  -2  58 S10       30.37F WCI  -3          
MCPHERSON      NOT AVBL                                               
HAYS           CLEAR      8  -1  66 S10       30.30F WCI  -6          

....South Central Kansas....
  
CITY           SKY/WX    TMP DP  RH WIND       PRES   REMARKS
HUTCHINSON     CLEAR      9  -1  64 SE7       30.39F WCI  -2          
NEWTON         CLEAR      9   1  70 SE7       30.42R WCI  -2          
KINGMAN        CLEAR      9  -2  61 SE10      30.39F WCI  -6          
WICHITA (ICT)  PTCLDY     8  -2  63 S6        30.43R WCI  -2          
JABARA ARPT    CLEAR     10  -1  61 SE6       30.43R WCI   0          
BEECH ARPT     CLEAR     10   0  61 S5        30.42S WCI   2          
MCCONNELL AFB  CLEAR     11  -1  59 S6        30.43R WCI   1          
BENTON         FAIR      11   1  62 SE5       30.44S WCI   3          
EL DORADO      CLOUDY    14   3  62 SE7       30.43S WCI   4          
AUGUSTA        PTCLDY    12   0  57 SE3       30.44S                  
WELLINGTON     NOT AVBL                                               
WINFIELD       CLEAR     10   1  67 SE3       30.46F                  
 
....Southeast Kansas....
  
CITY           SKY/WX    TMP DP  RH WIND       PRES   REMARKS
EUREKA         CLEAR      6   0  78 E5        30.47F WCI  -3          
IOLA           FAIR       4   1  86 NE5       30.51S WCI  -6          
CHANUTE        CLEAR      9   2  73 E5        30.50S WCI   1          
PARSONS        CLEAR      4   1  88 CALM      30.51F                  
COFFEYVILLE    CLEAR      8   1  73 NE3       30.51F                  
INDEPENDENCE   CLEAR      6   1  78 NE5       30.51F WCI  -3          
FORT SCOTT     NOT AVBL                                               
PITTSBURG      CLEAR      6   3  85 CALM      30.51R                  

....Western Kansas....
  
CITY           SKY/WX    TMP DP  RH WIND       PRES   REMARKS
GOODLAND       CLEAR     10   8  92 S13       30.04F WCI  -5          
HILL CITY      CLEAR     10  -1  61 S7        30.25F WCI  -1          
LIBERAL        CLEAR      9   7  92 SE10      30.18F WCI  -5          
GARDEN CITY    CLEAR      9  -2  61 S12       30.16F WCI  -6          
DODGE CITY     CLEAR      9  -3  58 S15       30.22F WCI  -8          
PRATT          CLEAR     11  -5  48 S9        30.34F WCI  -1          
MEDICINE LODGE   N/A      8  -4  58 E5        30.38F WCI   0          

....Northeast Kansas....
  
CITY           SKY/WX    TMP DP  RH WIND       PRES   REMARKS
CONCORDIA      CLEAR      9   0  67 S12       30.37F WCI  -6          
TOPEKA         CLEAR      3  -3  76 CALM      30.51F                  
MANHATTAN      CLEAR      8  -1  66 S6        30.46F WCI  -2          
LAWRENCE       CLEAR      1  -5  75 E5        30.52F WCI  -9          
OLATHE         CLEAR      4  -2  76 SE3       30.50S                  
EMPORIA        CLEAR      5  -2  72 SE8       30.44F WCI  -8          

....Oklahoma....
  
CITY           SKY/WX    TMP DP  RH WIND       PRES   REMARKS
GAGE           CLEAR     12  -4  48 S10       30.30F WCI  -1          
PONCA CITY     CLEAR      6   0  76 CALM      30.47F                  
BARTLESVILLE   CLEAR      4   1  88 CALM      30.52F                  
TULSA          CLEAR     10   4  76 NW3       30.50F                  
OKLAHOMA CITY  CLEAR     14  -1  51 CALM      30.43F                  

Note: "fair" indicates few or no clouds below 12,000 feet with no
significant weather and/or obstructions to visibility.